AirNav   Jet Aviation Boston
 
 1185 users online  

FL85 Baptist Hospital Heliport
Pensacola, Florida, USA

GOING TO PENSACOLA?


FAA INFORMATION EFFECTIVE 21 JUNE 2018

Location

FAA Identifier: FL85
Lat/Long: 30-25-45.7110N / 087-13-51.8950W
30-25.761850N / 087-13.864917W
30.4293642 / -87.2310819
(estimated)
Elevation: 115 ft. / 35 m (estimated)
Variation: 01E (1985)
Time zone: UTC -5 (UTC -6 during Standard Time)
Zip code: 32501

Heliport Operations

Heliport use: Private use. Permission required prior to landing
Activation date: 01/1974
Control tower: no
ARTCC: JACKSONVILLE CENTER
FSS: GAINESVILLE FLIGHT SERVICE STATION
Attendance: CONTINUOUS
Wind indicator: yes
Segmented circle: no
Beacon: white-green-yellow (heliport)
24 HRS

Heliport Communications

WX ASOS at PNS (4 nm NE): PHONE 850-436-4799
  • 122.825 USED INFREQUENTLY FOR COMMUNICATIONS.

Nearby radio navigation aids

VOR radial/distance  VOR name  Freq  Var
NUNr114/(6.0)SAUFLEY VOR108.8001E
CEWr227/37.1CRESTVIEW VORTAC115.9003E

 
NDB name  Hdg/Dist  Freq  Var  ID
PICKENS262/2.832602WPKZ .--. -.- --..

Heliport Services

Airframe service: NONE
Powerplant service: NONE

Runway Information

Helipad H1

Dimensions: 52 x 52 ft. / 16 x 16 m
Surface: concrete, in fair condition
Runway edge lights: PERIMETER LGTS.
Latitude: 30-25.761850N
Longitude: 087-13.864917W
Elevation: 115.0 ft.
Traffic pattern: rightleft
Markings: none, in fair condition

Heliport Ownership and Management from official FAA records

Ownership: Privately-owned
Owner: BAPTIST HOSPITAL
1000 W MORENO ST
PENSACOLA, FL 32501
Phone (850) 469-2304
Manager: DAVID KOVACH
1000 W MORENO ST
PENSACOLA, FL 32501
Phone (850) 469-2304

Heliport Operational Statistics

Aircraft based on the field: 2
Single engine airplanes: 1
Helicopters: 1
    

Additional Remarks

A52-H1 PLINES EAST OF FACILITY.

Instrument Procedures

There are no published instrument procedures at FL85.

Some nearby airports with instrument procedures:

KPNS - Pensacola International Airport (4 nm NE)
KNPA - Pensacola Naval Air Station/Forrest Sherman Field (6 nm SW)
2R4 - Peter Prince Field Airport (18 nm NE)
KNDZ - Whiting Field Naval Air Station South (20 nm NE)
KNSE - Whiting Field Naval Air Station North (21 nm NE)
 
Loc | Ops | Rwys | IFR | FBO | Links
Com | Nav | Svcs | Stats | Notes

Continental Motors
AirBoss

 
Area around FL85 (Baptist Hospital Heliport)
 
Road maps at: MapQuest Bing Google
 
Aerial photo
No photo
 
Sectional chart

 
Airport distance calculator
Flying to Baptist Hospital Heliport? Find the distance to fly.

From to FL85

Sunrise and sunset
Times for 22-Jun-2018
 Local
(UTC-5)
 Zulu
(UTC)
Morning civil twilight05:2110:21
Sunrise05:4810:48
Sunset19:5300:53
Evening civil twilight20:2101:21

Current date and time
Zulu (UTC)  22-Jun-2018 13:04:14
Local (UTC-5)  22-Jun-2018 08:04:14
 
METAR
KPNS 
4nm NE 
221253Z 28009KT 10SM SCT021 BKN048 28/24 A2994 RMK AO2 SLP139 T02830239
KNPA 
7nm SW 
221256Z 00000KT 10SM SCT024 SCT250 29/24 A2994 RMK AO2 SLP139 T02940239
2R4 
18nm NE 
SuperAWOS
221235Z AUTO 00000KT 27/25 A2993
KNDZ 
20nm NE 
221156Z 00000KT 10SM FEW018 SCT120 BKN250 26/26 A2993 RMK AO2 SLP121 70024 T02610256 10261 20228 51014 $
TAF
KPNS 
4nm NE 
221126Z 2212/2312 25006KT P6SM VCSH SCT020 SCT050 BKN250 FM221500 25008KT P6SM VCSH SCT030 SCT250 FM230000 22010KT P6SM FEW050 FEW250
KNPA 
7nm SW 
2207/2307 22010KT 9999 FEW020 FEW120 OVC300 QNH2984INS BECMG 2212/2214 23010KT 9999 VCSH SCT025 BKN250 QNH2990INS BECMG 2216/2218 VRB14G22KT 9999 VCTS SCT025CB SCT120 BKN250 QNH2988INS BECMG 2222/2300 20011KT 9999 NSW SCT020 BKN250 QNH2991INS AUTOMATED SENSOR METWATCH 2107 TIL 2111 T27/2109Z T32/2118Z FN00196
NOTAMs
Click for the latest NOTAMs
NOTAMs are issued by the DoD/FAA and will open in a separate window not controlled by AirNav.

 

 
 

Would you like to see your business listed on this page?

 If your business provides an interesting product or service to pilots, flight crews, aircraft, or users of the Baptist Hospital Heliport, you should consider listing it here.  To start the listing process, click on the button below
 
Add a business
 

Other Pages about Baptist Hospital Heliport

Update a link
 
Copyright © AirNav, LLC. All rights reserved. Privacy Policy  Contact